Regional Weather Roundup
Issued by NWS Green Bay, WI

Home | Current Version | Previous Version | Text Only | Print | Product List | Glossary On
Versions: 1 2 3 4 5 6 7 8 9 10 11 12 13 14 15 16 17 18 19 20 21 22 23 24 25 26 27 28 29 30 31 32 33 34 35 36 37 38 39 40 41 42 43 44 45 46 47 48 49 50
768
ASUS43 KGRB 261801
RWRGRB

NORTH-CENTRAL AND NORTHEAST WISCONSIN REGIONAL WEATHER ROUNDUP
NATIONAL WEATHER SERVICE GREEN BAY WI
100 PM CDT FRI MAY 26 2017

WIZ005-009-010>012-018-019-261900-
NORTH CENTRAL WISCONSIN

CITY           SKY/WX    TMP DP  RH WIND       PRES   REMARKS
IRONWOOD       CLOUDY    66  53  63 S7        29.79S
MANITOWISH WTR NOT AVBL
ARBOR VITAE    NOT AVBL
EAGLE RIVER    NOT AVBL
LAND O LAKES   NOT AVBL
RHINELANDER    CLOUDY    69  54  58 S6        29.82F
PHILLIPS       NOT AVBL
ANTIGO         NOT AVBL
TOMAHAWK       NOT AVBL
MERRILL        NOT AVBL
$$

WIZ013-073-261900-
NORTHEAST WISCONSIN

CITY           SKY/WX    TMP DP  RH WIND       PRES   REMARKS
IRON MOUNTAIN  CLOUDY    69  52  54 VRB7      29.81F
MARINETTE      MOSUNNY   66  52  60 S9        29.85S
$$

WIZ017-030-035>037-045-261900-
CENTRAL WISCONSIN

CITY           SKY/WX    TMP DP  RH WIND       PRES   REMARKS
MEDFORD        NOT AVBL
WAUSAU         CLOUDY    68  55  63 S8        29.81S
MOSINEE        CLOUDY    66  57  72 S6        29.84R
MARSHFIELD     CLOUDY    69  54  58 S8        29.80S
WISC RAPIDS    CLOUDY    71  55  56 SE8       29.81F
STEVENS POINT  NOT AVBL
WAUPACA        NOT AVBL
SHAWANO        NOT AVBL
CLINTONVILLE   NOT AVBL
WAUTOMA        MOSUNNY   70  55  59 SE10      29.81F
$$

WIZ038-039-048-051-261900-
FOX VALLEY

CITY           SKY/WX    TMP DP  RH WIND       PRES   REMARKS
NWS GREEN BAY  PTSUNNY   70  59  68 SE5       29.82F
APPLETON       PTSUNNY   66  52  59 SE8       29.82F
OSHKOSH        CLOUDY    68  55  63 SE10      29.82S
FOND DU LAC    CLOUDY    70  55  59 E9        29.82F
$$

WIZ022-050-052-261900-
EAST CENTRAL WISCONSIN

CITY           SKY/WX    TMP DP  RH WIND       PRES   REMARKS
EPHRAIM        NOT AVBL
WASHINGTON ISL NOT AVBL
STURGEON BAY   MOSUNNY   64  53  67 SE12      29.85F
MANITOWOC      NOT AVBL
SHEBOYGAN      CLOUDY    61  54  77 SE7       29.85F
$$

LMZ563-521-522-541>543-261900-
LAKESHORE

STATION/POSITION TIME  TEMP    WIND        PRES    VSBY  WAVE
                       AIR SEA DIR/SP/G                  HT/PER
                 (UTC) (F)     (DEG/KT/KT) (MB)    (MI)  (FT/S)
SHEBOYGAN LKSHOR 1700   47     120/  4/  5 1011.4F
KEWAUNEE LKSHORE 1730   47     170/  7/  8 1011.2R
NORTHPORT PIER   1740   55     350/  3/  4 1010.8S
N MID LAKE BUOY  1650   45 43  200/  8/  8 1012.0S         0
CHAMBERS ISLAND  1740   60     320/  6/  7 1010.2F
MENOMINEE LKSHOR 1724          100/  3/  3 1009.9
$$




USA.gov is the U.S. government's official web portal to all federal, state and local government web resources and services.